Regional Weather Roundup
Issued by NWS

Home | Current Version | Previous Version | Graphics & Text | Print | Product List | Glossary On
Versions: 1 2 3 4 5 6 7 8 9 10 11 12 13 14 15 16 17 18 19 20 21 22 23 24 25 26 27 28 29 30 31 32 33 34 35 36 37 38 39 40 41 42 43 44 45 46 47 48 49 50
000
ASUS43 KOAX 281102
RWRNE

WEATHER ROUNDUP FOR NEBRASKA
NATIONAL WEATHER SERVICE OMAHA NE
600 AM CDT THU MAY 28 2015

NOTES: SATELLITE DATA IS BEING USED TO AUGMENT CLOUD COVER ABOVE
       12000 FEET.
       "FAIR" INDICATES FEW OR NO CLOUDS BELOW 12,000 FEET WITH NO
       SIGNIFICANT WEATHER AND/OR OBSTRUCTIONS TO VISIBILITY.

  * THESE STATIONS DO NOT REPORT WEATHER SUCH AS RAIN...SNOW OR FOG.

NEZ001>004-019>022-054>056-281200-
NEBRASKA PANHANDLE

CITY           SKY/WX    TMP DP  RH WIND       PRES   REMARKS
SCOTTSBLUFF    MOCLDY    53  51  93 CALM      30.00S
ALLIANCE       PTCLDY    50  49  96 W10       29.98R
CHADRON        MOCLDY    56  51  84 SW6       29.95R
KIMBALL          N/A    N/A N/A N/A MISG        N/A
SIDNEY         PTCLDY    53  52  96 S8        30.02S
$$

NEZ057>060-069>072-079>082-281200-
SOUTHWEST NEBRASKA

CITY           SKY/WX    TMP DP  RH WIND       PRES   REMARKS
NORTH PLATTE   FOG       53  53 100 E5        30.03F VSB 1/2
IMPERIAL       MOCLDY    52  50  93 E6        30.03S
LEXINGTON      FOG       56  55  96 CALM      30.04R VSB 1/4
MCCOOK         CLOUDY    54  52  93 E5        30.02S
$$

NEZ005>010-023>029-035>040-094-281200-
NORTH CENTRAL NEBRASKA

CITY           SKY/WX    TMP DP  RH WIND       PRES   REMARKS
VALENTINE      MOCLDY    56  53  90 SE8       29.98R
AINSWORTH      PTCLDY    57  56  98 S8        30.01R
BROKEN BOW     PTCLDY    55  54  96 CALM      30.03R FOG
ORD            MOCLDY    57  55  93 CALM      30.02R
$$

NEZ041-046>049-061>064-073>077-083>087-281200-
SOUTH CENTRAL NEBRASKA

CITY           SKY/WX    TMP DP  RH WIND       PRES   REMARKS
GRAND ISLAND   CLOUDY    60  57  89 S8        30.04R
HASTINGS       CLOUDY    61  59  93 SE7       30.03R
KEARNEY *      CLOUDY    59  55  88 SW8       30.02F
$$

NEZ011>018-030>034-042>045-281200-
NORTHEAST NEBRASKA

CITY           SKY/WX    TMP DP  RH WIND       PRES   REMARKS
NORFOLK        MOCLDY    64  53  67 S12       30.03R
BLAIR          CLOUDY    61  52  72 SE5       30.06R
COLUMBUS *     CLOUDY    63  52  67 S8        30.06R
FREMONT        CLOUDY    61  54  76 CALM      30.06R
TEKAMAH        CLOUDY    58  53  84 CALM      30.05R
$$

NEZ050>053-065>068-078-088>093-281200-
SOUTHEAST NEBRASKA

CITY           SKY/WX    TMP DP  RH WIND       PRES   REMARKS
LINCOLN        LGT RAIN  63  57  81 S6        30.06R
OMAHA EPPLEY   CLOUDY    63  54  72 SE3       30.05R
NEBRASKA CITY  CLOUDY    64  52  65 SE7       30.06R
PLATTSMOUTH    CLOUDY    62  54  74 SE6       30.06R
$$

NEZ044-045-051>053-067-281200-
OMAHA AREA

CITY           SKY/WX    TMP DP  RH WIND       PRES   REMARKS
OMAHA EPPLEY   CLOUDY    63  54  72 SE3       30.05R
BLAIR          CLOUDY    61  52  72 SE5       30.06R
FREMONT        CLOUDY    61  54  76 CALM      30.06R
OFFUTT AFB     CLOUDY    59  54  82 E6        30.05R
PLATTSMOUTH    CLOUDY    62  54  74 SE6       30.06R
WAHOO          PTSUNNY   59  55  85 CALM      30.06R
$$



USA.gov is the U.S. government's official web portal to all federal, state and local government web resources and services.